Location: Unspecified
(0.0000°N, 0.0000°E)
Time: 11:30:16
(UTC+00:00)

Transit 4A - Pass Details

Date: 20 November 2019
Orbit: 870 x 975 km, 66.8° (Epoch: 07 December)

Event Time Altitude Azimuth Distance (km) Brightness Sun altitude
Rises 07:24:34 0° 357° (N) 3,441 10.6 23.2°
Reaches altitude 10° 07:27:15 10° 6° (N) 2,504 10.1 23.9°
Maximum altitude 07:32:27 35° 71° (ENE) 1,377 9.9 25.1°
Drops below altitude 10° 07:37:42 10° 135° (SE) 2,531 11.5 26.3°
Sets 07:40:24 0° 143° (SE) 3,483 11.8 26.9°
